Location: Roland
(31.1349°N, 85.4372°W)
Time: 04:09:22
(UTC+00:00)

Vanguard 2 Rocket - Pass Details

Date: 03 December 2021
Orbit: 554 x 3324 km, 32.9° (Epoch: 16 January)

Event Time Altitude Azimuth Distance (km) Brightness Sun altitude
Rises 01:54:48 0° 274° (W) 3,835 11.0 -41.2°
Reaches altitude 10° 01:56:58 10° 275° (W) 3,126 10.3 -41.7°
Enters shadow 02:02:49 60° 288° (WNW) 1,788 8.3 -42.9°
